This demonstration page uses our WeatherBlox Daily Observations layout. Learn more.

Hourly Observations for June 30, 2015

Temp ( °F °C ) Dew Point ( °F °C ) Humidity (%) Winds ( mph kmh ) Pressure ( in mb ) Visibility ( mi km ) Precip ( " mm )
12:15 am 00:15 Clear 72 22 61 16 69 69 Calm 29.91 1013 10 16.09344 0 0
12:35 am 00:35 Clear 72 22 61 16 69 69 Calm 29.94 1014 10 16.09344 0 0
12:55 am 00:55 Clear 72 22 59 15 65 65 S 5 7 29.94 1014 10 16.09344 0 0
1:15 am 01:15 Clear 72 22 59 15 65 65 SSW 5 7 29.94 1014 10 16.09344 0 0
1:35 am 01:35 Clear 70 21 59 15 69 69 SW 5 7 29.94 1014 10 16.09344 0 0
1:55 am 01:55 Clear 72 22 59 15 65 65 SSW 7 11 29.94 1014 10 16.09344 0 0
2:15 am 02:15 Clear 70 21 59 15 69 69 SW 7 11 29.94 1014 10 16.09344 0 0
2:35 am 02:35 Clear 70 21 59 15 69 69 SW 6 9 29.91 1013 10 16.09344 0 0
2:55 am 02:55 Clear 70 21 59 15 69 69 SSW 6 9 29.91 1013 10 16.09344 0 0
3:15 am 03:15 Clear 70 21 59 15 69 69 SSW 6 9 29.91 1013 10 16.09344 0 0
3:35 am 03:35 Clear 70 21 59 15 69 69 SSW 5 7 29.91 1013 10 16.09344 0 0
3:55 am 03:55 Clear 70 21 59 15 69 69 SSW 6 9 29.91 1013 10 16.09344 0 0
4:15 am 04:15 Clear 68 20 59 15 73 73 SW 6 9 29.91 1013 10 16.09344 0 0
4:35 am 04:35 Clear 70 21 57 14 64 64 SSW 7 11 29.91 1013 10 16.09344 0 0
4:55 am 04:55 Partly Cloudy 70 21 57 14 64 64 SSW 6 9 29.91 1013 10 16.09344 0 0
5:15 am 05:15 Partly Cloudy 70 21 57 14 64 64 SSW 5 7 29.91 1013 10 16.09344 0 0
5:35 am 05:35 Partly Cloudy 68 20 57 14 69 69 Calm 29.91 1013 10 16.09344 0 0
5:55 am 05:55 Partly Cloudy 68 20 57 14 69 69 Calm 29.91 1013 10 16.09344 0 0
6:15 am 06:15 Partly Cloudy 66 19 57 14 73 73 Calm 29.94 1014 10 16.09344 0 0
6:35 am 06:35 Sunny 66 19 57 14 73 73 Calm 29.94 1014 10 16.09344 0 0
6:55 am 06:55 Sunny 66 19 57 14 73 73 Calm 29.94 1014 10 16.09344 0 0
7:15 am 07:15 Sunny 68 20 59 15 73 73 S 5 7 29.91 1013 10 16.09344 0 0
7:35 am 07:35 Sunny 70 21 59 15 69 69 S 3 6 29.91 1013 10 16.09344 0 0
7:55 am 07:55 Sunny 72 22 59 15 65 65 S 6 9 29.91 1013 10 16.09344 0 0
8:15 am 08:15 Sunny 73 23 59 15 61 61 S 7 11 29.91 1013 10 16.09344 0 0
8:35 am 08:35 Sunny 75 24 59 15 57 57 SSW 8 13 29.88 1012 10 16.09344 0 0
8:55 am 08:55 Sunny 75 24 59 15 57 57 SSW 9 15 29.88 1012 10 16.09344 0 0
9:15 am 09:15 Sunny 75 24 57 14 54 54 SSW 10 17 29.88 1012 10 16.09344 0 0
9:35 am 09:35 Sunny 77 25 59 15 54 54 SSW 7 11 29.88 1012 10 16.09344 0 0
9:55 am 09:55 Sunny 79 26 61 16 54 54 SSW 6 9 29.88 1012 10 16.09344 0 0
10:15 am 10:15 Sunny 81 27 61 16 51 51 SSW 7 11 29.83 1010 10 16.09344 0 0
10:35 am 10:35 Sunny 81 27 61 16 51 51 S 8 13 29.83 1010 10 16.09344 0 0
10:55 am 10:55 Sunny 82 28 63 17 51 51 SSW 9 15 29.83 1010 10 16.09344 0 0
11:15 am 11:15 Sunny 84 29 61 16 45 45 SW 9 15 29.83 1010 10 16.09344 0 0
11:35 am 11:35 Sunny 84 29 61 16 45 45 SW 7 11 29.83 1010 10 16.09344 0 0
11:55 am 11:55 Sunny 86 30 61 16 43 43 SSW 9 15 29.83 1010 10 16.09344 0 0
12:15 pm 12:15 Sunny 88 31 59 15 38 38 SSW 9 15 29.77 1008 10 16.09344 0 0
12:35 pm 12:35 Sunny 88 31 61 16 40 40 SSW 9 15 29.77 1008 10 16.09344 0 0
12:55 pm 12:55 Sunny 90 32 61 16 38 38 SW 10 17 29.77 1008 10 16.09344 0 0
1:15 pm 13:15 Sunny 90 32 59 15 36 36 SSW 7 11 29.77 1008 10 16.09344 0 0
1:35 pm 13:35 Sunny 90 32 61 16 38 38 SW 7 11 29.77 1008 10 16.09344 0 0
1:55 pm 13:55 Sunny 91 33 59 15 34 34 SSW 9 15 29.74 1007 10 16.09344 0 0
2:15 pm 14:15 Sunny 93 34 55 13 28 28 SSW 9 15 29.71 1006 10 16.09344 0 0
2:35 pm 14:35 Sunny 93 34 55 13 28 28 SW 9 15 29.71 1006 10 16.09344 0 0
2:55 pm 14:55 Sunny 93 34 54 12 26 26 W 7 11 29.71 1006 10 16.09344 0 0
3:15 pm 15:15 Sunny 95 35 55 13 26 26 SW 7 11 29.71 1006 10 16.09344 0 0
3:35 pm 15:35 Sunny 93 34 55 13 28 28 W 7 11 29.68 1005 10 16.09344 0 0
3:55 pm 15:55 Sunny 93 34 54 12 26 26 SW 3 6 29.68 1005 10 16.09344 0 0
4:15 pm 16:15 Sunny 95 35 50 10 22 22 SSW 5 7 29.68 1005 10 16.09344 0 0
4:35 pm 16:35 Sunny 95 35 54 12 25 25 SSW 8 13 29.68 1005 10 16.09344 0 0
4:55 pm 16:55 Sunny 93 34 52 11 24 24 S 5 7 29.68 1005 10 16.09344 0 0
5:15 pm 17:15 Sunny 93 34 55 13 28 28 S 3 6 29.65 1004 10 16.09344 0 0
5:35 pm 17:35 Sunny 91 33 61 16 36 36 Calm 29.65 1004 10 16.09344 0 0
5:55 pm 17:55 Sunny 90 32 64 18 43 43 SE 3 6 29.68 1005 10 16.09344 0 0
6:15 pm 18:15 Sunny 90 32 66 19 46 46 ESE 5 7 29.65 1004 10 16.09344 0 0
6:35 pm 18:35 Sunny 90 32 68 20 49 49 ESE 5 7 29.65 1004 7 11.265408 0 0
7:15 pm 19:15 Sunny 88 31 66 19 49 49 ESE 5 7 29.65 1004 7 11.265408 0 0
9:15 pm 21:15 Clear 81 27 63 17 54 54 ESE 7 11 29.68 1005 10 16.09344 0 0
9:35 pm 21:35 Clear 81 27 61 16 51 51 SE 8 13 29.68 1005 10 16.09344 0 0
9:55 pm 21:55 Clear 81 27 61 16 51 51 ESE 7 11 29.68 1005 10 16.09344 0 0
10:15 pm 22:15 Clear 79 26 63 17 58 58 ESE 9 15 29.68 1005 10 16.09344 0 0
10:35 pm 22:35 Clear 79 26 63 17 58 58 ESE 8 13 29.68 1005 10 16.09344 0 0
10:55 pm 22:55 Clear 77 25 63 17 61 61 ESE 8 13 29.68 1005 10 16.09344 0 0
11:15 pm 23:15 Clear 77 25 63 17 61 61 E 7 11 29.68 1005 10 16.09344 0 0
11:35 pm 23:35 Clear 75 24 64 18 69 69 E 7 11 29.71 1006 10 16.09344 0 0
11:55 pm 23:55 Clear 75 24 64 18 69 69 E 7 11 29.71 1006 10 16.09344 0 0

Powered by AerisWeather